,,PA_Meas_PMT16A,,PR_Meas_QMR101_102,,RH_Meas_QMH101,,SR_Meas_QMS101,,TA_Meas_QMH101,,GenWind,,GenWind,
time,status,PA,status,PR,status,RH,status,SR,status,TA,status,DirAvg,status,SpdAvg,
2015-01-17, 00:00:04,VALID,919.255,VALID,0,VALID,89.7352,VALID,0,VALID,19.5468,VALID,143,VALID,1.02539,
2015-01-17, 00:01:04,VALID,919.245,VALID,0,VALID,89.7581,VALID,0,VALID,19.5663,VALID,132,VALID,1.53398,
2015-01-17, 00:02:04,VALID,919.256,VALID,0,VALID,89.7505,VALID,0,VALID,19.5678,VALID,137,VALID,1.42539,
2015-01-17, 00:03:04,VALID,919.241,VALID,0,VALID,89.9716,VALID,0,VALID,19.5273,VALID,140,VALID,1.83633,
2015-01-17, 00:04:04,VALID,919.25,VALID,0,VALID,90.124,VALID,0,VALID,19.5483,VALID,146,VALID,1.52461,
2015-01-17, 00:05:04,VALID,919.241,VALID,0,VALID,90.1012,VALID,0,VALID,19.5288,VALID,147,VALID,1.12266,
2015-01-17, 00:06:04,VALID,919.219,VALID,0,VALID,90.1926,VALID,0,VALID,19.4883,VALID,133,VALID,1.875,
2015-01-17, 00:07:04,VALID,919.231,VALID,0,VALID,90.368,VALID,0,VALID,19.4883,VALID,143,VALID,1.35898,
2015-01-17, 00:08:04,VALID,919.216,VALID,0,VALID,90.4213,VALID,0,VALID,19.4883,VALID,155,VALID,1.24844,
2015-01-17, 00:09:04,VALID,919.171,VALID,0,VALID,90.3222,VALID,0,VALID,19.4883,VALID,154,VALID,0.729688,
2015-01-17, 00:10:04,VALID,919.157,VALID,0,VALID,90.3375,VALID,0,VALID,19.4688,VALID,144,VALID,1.05625,
2015-01-17, 00:11:04,VALID,919.149,VALID,0,VALID,90.3451,VALID,0,VALID,19.5078,VALID,133,VALID,1.08711,
2015-01-17, 00:12:04,VALID,919.139,VALID,0,VALID,90.3222,VALID,0,VALID,19.4883,VALID,133,VALID,1.51445,
2015-01-17, 00:13:04,VALID,919.157,VALID,0,VALID,90.3832,VALID,0,VALID,19.4883,VALID,140,VALID,1.53086,
2015-01-17, 00:14:04,VALID,919.16,VALID,0,VALID,90.4442,VALID,0,VALID,19.4688,VALID,119,VALID,1.67266,
2015-01-17, 00:15:04,VALID,919.166,VALID,0,VALID,90.4137,VALID,0,VALID,19.4493,VALID,136,VALID,1.40313,
2015-01-17, 00:16:04,VALID,919.146,VALID,0,VALID,90.5586,VALID,0,VALID,19.4298,VALID,127,VALID,2.20352,
2015-01-17, 00:17:04,VALID,919.124,VALID,0,VALID,90.6272,VALID,0,VALID,19.4103,VALID,136,VALID,1.57852,
2015-01-17, 00:18:04,VALID,919.13,VALID,0,VALID,90.7796,VALID,0,VALID,19.4118,VALID,144,VALID,1.39297,
2015-01-17, 00:19:04,VALID,919.128,VALID,0,VALID,90.8406,VALID,0,VALID,19.4118,VALID,149,VALID,1.0293,
2015-01-17, 00:20:04,VALID,919.101,VALID,0,VALID,90.7415,VALID,0,VALID,19.3908,VALID,146,VALID,1.08867,
2015-01-17, 00:21:04,VALID,919.056,VALID,0,VALID,90.7187,VALID,0,VALID,19.3923,VALID,140,VALID,1.04922,
2015-01-17, 00:22:04,VALID,919.067,VALID,0,VALID,90.7644,VALID,0,VALID,19.3908,VALID,144,VALID,1.3043,
2015-01-17, 00:23:04,VALID,919.016,VALID,0,VALID,90.6729,VALID,0,VALID,19.4313,VALID,139,VALID,1.77305,
2015-01-17, 00:24:04,VALID,919.011,VALID,0,VALID,90.2917,VALID,0,VALID,19.4313,VALID,120,VALID,1.41289,
2015-01-17, 00:25:04,VALID,919.029,VALID,0,VALID,90.4747,VALID,0,VALID,19.4118,VALID,129,VALID,1.44961,
2015-01-17, 00:26:04,VALID,918.985,VALID,0,VALID,90.5814,VALID,0,VALID,19.3923,VALID,127,VALID,1.44414,
2015-01-17, 00:27:04,VALID,918.991,VALID,0,VALID,90.711,VALID,0,VALID,19.3533,VALID,131,VALID,1.40547,
2015-01-17, 00:28:04,VALID,918.979,VALID,0,VALID,90.6043,VALID,0,VALID,19.3533,VALID,119,VALID,1.63359,
2015-01-17, 00:29:04,VALID,918.948,VALID,0,VALID,90.7187,VALID,0,VALID,19.3728,VALID,141,VALID,1.43242,
2015-01-17, 00:30:04,VALID,918.95,VALID,0,VALID,90.5814,VALID,0,VALID,19.4313,VALID,139,VALID,1.23906,
2015-01-17, 00:31:04,VALID,918.92,VALID,0,VALID,90.2917,VALID,0,VALID,19.4703,VALID,136,VALID,1.43477,
2015-01-17, 00:32:04,VALID,918.921,VALID,0,VALID,90.0935,VALID,0,VALID,19.5093,VALID,127,VALID,1.54102,
2015-01-17, 00:33:04,VALID,918.893,VALID,0,VALID,89.9258,VALID,0,VALID,19.5288,VALID,125,VALID,1.71016,
2015-01-17, 00:34:04,VALID,918.856,VALID,0,VALID,89.9029,VALID,0,VALID,19.5678,VALID,137,VALID,1.47578,
2015-01-17, 00:35:04,VALID,918.862,VALID,0,VALID,89.8725,VALID,0,VALID,19.5288,VALID,133,VALID,1.68477,
2015-01-17, 00:36:04,VALID,918.849,VALID,0,VALID,89.9411,VALID,0,VALID,19.4898,VALID,142,VALID,1.07383,
2015-01-17, 00:37:04,VALID,918.831,VALID,0,VALID,90.1164,VALID,0,VALID,19.4703,VALID,134,VALID,0.728125,
2015-01-17, 00:38:04,VALID,918.839,VALID,0,VALID,90.2689,VALID,0,VALID,19.4508,VALID,140,VALID,1.35938,
2015-01-17, 00:39:04,VALID,918.781,VALID,0,VALID,90.3604,VALID,0,VALID,19.4703,VALID,146,VALID,0.883594,
2015-01-17, 00:40:04,VALID,918.794,VALID,0,VALID,90.2917,VALID,0,VALID,19.4898,VALID,148,VALID,1.40937,
2015-01-17, 00:41:04,VALID,918.815,VALID,0,VALID,90.368,VALID,0,VALID,19.5093,VALID,133,VALID,1.6625,
2015-01-17, 00:42:04,VALID,918.789,VALID,0,VALID,90.3756,VALID,0,VALID,19.5288,VALID,141,VALID,1.66758,
2015-01-17, 00:43:04,VALID,918.782,VALID,0,VALID,90.2917,VALID,0,VALID,19.5483,VALID,143,VALID,1.7207,
2015-01-17, 00:44:04,VALID,918.73,VALID,0,VALID,90.1545,VALID,0,VALID,19.5483,VALID,140,VALID,1.25586,
2015-01-17, 00:45:04,VALID,918.768,VALID,0,VALID,90.0402,VALID,0,VALID,19.5678,VALID,133,VALID,2.1207,
2015-01-17, 00:46:04,VALID,918.761,VALID,0,VALID,89.8725,VALID,0,VALID,19.5873,VALID,135,VALID,1.87812,
2015-01-17, 00:47:04,VALID,918.73,VALID,0,VALID,89.8496,VALID,0,VALID,19.6068,VALID,134,VALID,1.77344,
2015-01-17, 00:48:04,VALID,918.753,VALID,0,VALID,89.8038,VALID,0,VALID,19.6263,VALID,141,VALID,1.48672,
2015-01-17, 00:49:04,VALID,918.737,VALID,0,VALID,89.7962,VALID,0,VALID,19.6458,VALID,143,VALID,1.88516,
2015-01-17, 00:50:04,VALID,918.677,VALID,0,VALID,89.7962,VALID,0,VALID,19.6263,VALID,123,VALID,1.09609,
2015-01-17, 00:51:04,VALID,918.687,VALID,0,VALID,89.8877,VALID,0,VALID,19.6068,VALID,135,VALID,1.64297,
2015-01-17, 00:52:04,VALID,918.662,VALID,0,VALID,89.9411,VALID,0,VALID,19.5678,VALID,125,VALID,2.00391,
2015-01-17, 00:53:04,VALID,918.631,VALID,0,VALID,90.2231,VALID,0,VALID,19.5678,VALID,143,VALID,1.82344,
2015-01-17, 00:54:04,VALID,918.576,VALID,0,VALID,90.1316,VALID,0,VALID,19.5873,VALID,119,VALID,1.51172,
2015-01-17, 00:55:04,VALID,918.606,VALID,0,VALID,90.063,VALID,0,VALID,19.5873,VALID,129,VALID,1.825,
2015-01-17, 00:56:04,VALID,918.586,VALID,0,VALID,90.0707,VALID,0,VALID,19.5678,VALID,121,VALID,0.951172,
2015-01-17, 00:57:04,VALID,918.562,VALID,0,VALID,89.9792,VALID,0,VALID,19.5873,VALID,121,VALID,1.24102,
2015-01-17, 00:58:04,VALID,918.568,VALID,0,VALID,89.9563,VALID,0,VALID,19.5678,VALID,115,VALID,1.09531,
2015-01-17, 00:59:04,VALID,918.504,VALID,0,VALID,90.1164,VALID,0,VALID,19.5288,VALID,124,VALID,1.40391,
2015-01-17, 01:00:04,VALID,918.48,VALID,0,VALID,90.3146,VALID,0,VALID,19.5483,VALID,151,VALID,1.51211,
2015-01-17, 01:01:04,VALID,918.477,VALID,0,VALID,90.1698,VALID,0,VALID,19.5678,VALID,111,VALID,1.10117,
2015-01-17, 01:02:04,VALID,918.456,VALID,0,VALID,89.9258,VALID,0,VALID,19.5078,VALID,120,VALID,1.79453,
2015-01-17, 01:03:04,VALID,918.449,VALID,0,VALID,90.246,VALID,0,VALID,19.4703,VALID,133,VALID,1.71914,
2015-01-17, 01:04:04,VALID,918.438,VALID,0,VALID,90.429,VALID,0,VALID,19.4313,VALID,129,VALID,1.15313,
2015-01-17, 01:05:04,VALID,918.44,VALID,0,VALID,90.3985,VALID,0,VALID,19.4118,VALID,109,VALID,1.21523,
2015-01-17, 01:06:05,VALID,918.392,VALID,0,VALID,90.5433,VALID,0,VALID,19.3728,VALID,113,VALID,1.42617,
2015-01-17, 01:07:05,VALID,918.392,VALID,0,VALID,90.711,VALID,0,VALID,19.3728,VALID,127,VALID,1.4707,
2015-01-17, 01:08:05,VALID,918.355,VALID,0,VALID,90.7187,VALID,0,VALID,19.4118,VALID,129,VALID,1.14727,
2015-01-17, 01:09:05,VALID,918.354,VALID,0,VALID,90.6043,VALID,0,VALID,19.4118,VALID,132,VALID,0.826172,
2015-01-17, 01:10:05,VALID,918.339,VALID,0,VALID,90.5814,VALID,0,VALID,19.4118,VALID,126,VALID,1.725,
2015-01-17, 01:11:05,VALID,918.315,VALID,0,VALID,90.5052,VALID,0,VALID,19.4313,VALID,128,VALID,1.7707,
2015-01-17, 01:12:05,VALID,918.276,VALID,0,VALID,90.5052,VALID,0,VALID,19.4883,VALID,148,VALID,1.62344,
2015-01-17, 01:13:05,VALID,918.268,VALID,0,VALID,90.2689,VALID,0,VALID,19.5093,VALID,109,VALID,1.12422,
2015-01-17, 01:14:05,VALID,918.23,VALID,0,VALID,89.9944,VALID,0,VALID,19.5483,VALID,119,VALID,1.89727,
2015-01-17, 01:15:05,VALID,918.196,VALID,0,VALID,89.8115,VALID,0,VALID,19.5873,VALID,130,VALID,1.34258,
2015-01-17, 01:16:05,VALID,918.177,VALID,0,VALID,89.5599,VALID,0,VALID,19.6653,VALID,130,VALID,1.96523,
2015-01-17, 01:17:05,VALID,918.213,VALID,0,VALID,89.0491,VALID,0,VALID,19.7433,VALID,116,VALID,1.27969,
2015-01-17, 01:18:05,VALID,918.18,VALID,0,VALID,88.9729,VALID,0,VALID,19.7433,VALID,123,VALID,1.78555,
2015-01-17, 01:19:05,VALID,918.128,VALID,0,VALID,88.9424,VALID,0,VALID,19.7433,VALID,129,VALID,1.1543,
2015-01-17, 01:20:05,VALID,918.125,VALID,0,VALID,88.9576,VALID,0,VALID,19.7223,VALID,132,VALID,1.12188,
2015-01-17, 01:21:05,VALID,918.129,VALID,0,VALID,88.95,VALID,0,VALID,19.7433,VALID,127,VALID,2.04141,
2015-01-17, 01:22:05,VALID,918.09,VALID,0,VALID,88.6375,VALID,0,VALID,19.8408,VALID,118,VALID,1.98867,
2015-01-17, 01:23:05,VALID,918.11,VALID,0,VALID,88.1496,VALID,0,VALID,19.8798,VALID,92,VALID,0.867578,
2015-01-17, 01:24:05,VALID,918.103,VALID,0,VALID,88.1267,VALID,0,VALID,19.8408,VALID,98,VALID,0.693359,
2015-01-17, 01:25:05,VALID,918.096,VALID,0,VALID,88.5917,VALID,0,VALID,19.7628,VALID,119,VALID,1.02305,
2015-01-17, 01:26:05,VALID,918.086,VALID,0,VALID,89.011,VALID,0,VALID,19.6638,VALID,126,VALID,1.06836,
2015-01-17, 01:27:05,VALID,918.124,VALID,0,VALID,89.4227,VALID,0,VALID,19.6068,VALID,110,VALID,1.39727,
2015-01-17, 01:28:05,VALID,918.088,VALID,0,VALID,89.7352,VALID,0,VALID,19.5483,VALID,126,VALID,0.0195313,
2015-01-17, 01:29:05,VALID,918.079,VALID,0,VALID,90.063,VALID,0,VALID,19.4703,VALID,128,VALID,1.43945,
2015-01-17, 01:30:05,VALID,918.089,VALID,0,VALID,90.3222,VALID,0,VALID,19.3908,VALID,98,VALID,1.6168,
2015-01-17, 01:31:05,VALID,918.056,VALID,0,VALID,90.7873,VALID,0,VALID,19.2948,VALID,118,VALID,1.49961,
2015-01-17, 01:32:05,VALID,918.046,VALID,0,VALID,91.1913,VALID,0,VALID,19.2168,VALID,112,VALID,1.14961,
2015-01-17, 01:33:05,VALID,918.055,VALID,0,VALID,91.5648,VALID,0,VALID,19.1583,VALID,120,VALID,1.28984,
2015-01-17, 01:34:05,VALID,918.048,VALID,0,VALID,91.7859,VALID,0,VALID,19.0998,VALID,102,VALID,1.20078,
2015-01-17, 01:35:05,VALID,918.015,VALID,0,VALID,92.1137,VALID,0,VALID,19.0593,VALID,120,VALID,1.23711,
2015-01-17, 01:36:05,VALID,917.997,VALID,0,VALID,92.4034,VALID,0,VALID,19.0608,VALID,124,VALID,0.617578,
2015-01-17, 01:37:05,VALID,917.957,VALID,0,VALID,92.6093,VALID,0,VALID,19.0608,VALID,117,VALID,1.42148,
2015-01-17, 01:38:05,VALID,917.951,VALID,0,VALID,92.7007,VALID,0,VALID,19.0218,VALID,116,VALID,1.07852,
2015-01-17, 01:39:05,VALID,917.93,VALID,0,VALID,92.9294,VALID,0,VALID,19.0023,VALID,128,VALID,1.36797,
2015-01-17, 01:40:05,VALID,917.917,VALID,0,VALID,93.2877,VALID,0,VALID,19.0023,VALID,133,VALID,1.83516,
2015-01-17, 01:41:05,VALID,917.925,VALID,0,VALID,93.6079,VALID,0,VALID,18.9828,VALID,128,VALID,1.76797,
2015-01-17, 01:42:05,VALID,917.895,VALID,0,VALID,93.7299,VALID,0,VALID,18.9828,VALID,132,VALID,1.68164,
2015-01-17, 01:43:05,VALID,917.876,VALID,0,VALID,93.8595,VALID,0,VALID,18.9438,VALID,133,VALID,1.47578,
2015-01-17, 01:44:05,VALID,917.87,VALID,0,VALID,94.3245,VALID,0,VALID,18.9438,VALID,133,VALID,1.21094,
2015-01-17, 01:45:05,VALID,917.843,VALID,0,VALID,94.4465,VALID,0,VALID,18.9048,VALID,132,VALID,1.16836,
2015-01-17, 01:46:05,VALID,917.839,VALID,0,VALID,94.7057,VALID,0,VALID,18.8839,VALID,120,VALID,1.15469,
2015-01-17, 01:47:05,VALID,917.787,VALID,0,VALID,94.8582,VALID,0,VALID,18.9243,VALID,126,VALID,1.85234,
2015-01-17, 01:48:05,VALID,917.778,VALID,0,VALID,94.9192,VALID,0,VALID,18.9438,VALID,129,VALID,1.4832,
2015-01-17, 01:49:05,VALID,917.749,VALID,0,VALID,94.8963,VALID,0,VALID,18.9438,VALID,124,VALID,1.70195,
2015-01-17, 01:50:05,VALID,917.757,VALID,0,VALID,94.9115,VALID,0,VALID,19.0218,VALID,124,VALID,1.74023,
2015-01-17, 01:51:05,VALID,917.735,VALID,0,VALID,94.5456,VALID,0,VALID,19.0608,VALID,129,VALID,1.33477,
2015-01-17, 01:52:05,VALID,917.723,VALID,0,VALID,94.1111,VALID,0,VALID,19.0803,VALID,141,VALID,0.886328,
2015-01-17, 01:53:05,VALID,917.708,VALID,0,VALID,93.9281,VALID,0,VALID,19.1193,VALID,145,VALID,0.772656,
2015-01-17, 01:54:05,VALID,917.723,VALID,0,VALID,93.829,VALID,0,VALID,19.1388,VALID,149,VALID,1.35352,
2015-01-17, 01:55:05,VALID,917.724,VALID,0,VALID,93.5088,VALID,0,VALID,19.1778,VALID,137,VALID,0.998828,
2015-01-17, 01:56:05,VALID,917.688,VALID,0,VALID,93.2268,VALID,0,VALID,19.2363,VALID,130,VALID,1.77422,
2015-01-17, 01:57:05,VALID,917.682,VALID,0,VALID,92.6321,VALID,0,VALID,19.2948,VALID,137,VALID,1.61406,
2015-01-17, 01:58:05,VALID,917.663,VALID,0,VALID,92.19,VALID,0,VALID,19.2753,VALID,136,VALID,0.836719,
2015-01-17, 01:59:05,VALID,917.659,VALID,0,VALID,92.1671,VALID,0,VALID,19.2948,VALID,141,VALID,0,
2015-01-17, 02:00:05,VALID,917.687,VALID,0,VALID,92.0985,VALID,0,VALID,19.2933,VALID,146,VALID,1.32148,
2015-01-17, 02:01:05,VALID,917.672,VALID,0,VALID,91.9155,VALID,0,VALID,19.3143,VALID,133,VALID,1.18711,
2015-01-17, 02:02:05,VALID,917.699,VALID,0,VALID,91.7859,VALID,0,VALID,19.3128,VALID,131,VALID,0.909375,
2015-01-17, 02:03:05,VALID,917.701,VALID,0,VALID,91.6411,VALID,0,VALID,19.3338,VALID,141,VALID,0.693359,
2015-01-17, 02:04:05,VALID,917.689,VALID,0,VALID,91.7478,VALID,0,VALID,19.3323,VALID,114,VALID,1.47734,
2015-01-17, 02:05:05,VALID,917.677,VALID,0,VALID,91.7249,VALID,0,VALID,19.3533,VALID,144,VALID,1.20508,
2015-01-17, 02:06:05,VALID,917.681,VALID,0,VALID,91.5267,VALID,0,VALID,19.3338,VALID,138,VALID,0.318359,
2015-01-17, 02:07:05,VALID,917.667,VALID,0,VALID,91.6411,VALID,0,VALID,19.3338,VALID,130,VALID,0.917578,
2015-01-17, 02:08:05,VALID,917.646,VALID,0,VALID,91.664,VALID,0,VALID,19.2948,VALID,149,VALID,0.743359,
2015-01-17, 02:09:05,VALID,917.631,VALID,0,VALID,91.7097,VALID,0,VALID,19.3157,VALID,154,VALID,0.875,
2015-01-17, 02:10:05,VALID,917.601,VALID,0,VALID,91.8088,VALID,0,VALID,19.2948,VALID,148,VALID,0,
2015-01-17, 02:11:05,VALID,917.593,VALID,0,VALID,91.8164,VALID,0,VALID,19.2753,VALID,149,VALID,0,
2015-01-17, 02:12:05,VALID,917.568,VALID,0,VALID,91.8698,VALID,0,VALID,19.2753,VALID,149,VALID,0,
2015-01-17, 02:13:05,VALID,917.568,VALID,0,VALID,91.6716,VALID,0,VALID,19.2363,VALID,110,VALID,0.699609,
2015-01-17, 02:14:05,VALID,917.531,VALID,0,VALID,92.0223,VALID,0,VALID,19.2168,VALID,119,VALID,1.48203,
2015-01-17, 02:15:05,VALID,917.501,VALID,0,VALID,92.2814,VALID,0,VALID,19.1778,VALID,132,VALID,1.33047,
2015-01-17, 02:16:05,VALID,917.507,VALID,0,VALID,92.5025,VALID,0,VALID,19.1778,VALID,146,VALID,0.814453,
2015-01-17, 02:17:05,VALID,917.486,VALID,0,VALID,92.5178,VALID,0,VALID,19.1178,VALID,148,VALID,0.578516,
2015-01-17, 02:18:05,VALID,917.506,VALID,0,VALID,92.6016,VALID,0,VALID,19.1178,VALID,132,VALID,0.591797,
2015-01-17, 02:19:05,VALID,917.533,VALID,0,VALID,92.6626,VALID,0,VALID,19.1388,VALID,132,VALID,0,
2015-01-17, 02:20:05,VALID,917.51,VALID,0,VALID,92.8608,VALID,0,VALID,19.1388,VALID,136,VALID,1.26094,
2015-01-17, 02:21:05,VALID,917.52,VALID,0,VALID,92.8303,VALID,0,VALID,19.1193,VALID,121,VALID,1.28828,
2015-01-17, 02:22:05,VALID,917.525,VALID,0,VALID,92.7541,VALID,0,VALID,19.0803,VALID,118,VALID,1.10469,
2015-01-17, 02:23:05,VALID,917.54,VALID,0,VALID,92.8913,VALID,0,VALID,19.0608,VALID,119,VALID,1.11914,
2015-01-17, 02:24:05,VALID,917.538,VALID,0,VALID,93.3411,VALID,0,VALID,19.0413,VALID,122,VALID,1.22656,
2015-01-17, 02:25:05,VALID,917.531,VALID,0,VALID,93.6842,VALID,0,VALID,19.0023,VALID,124,VALID,1.0707,
2015-01-17, 02:26:05,VALID,917.479,VALID,0,VALID,94.1644,VALID,0,VALID,18.9619,VALID,122,VALID,1.51953,
2015-01-17, 02:27:05,VALID,917.466,VALID,0,VALID,94.5761,VALID,0,VALID,18.9633,VALID,126,VALID,1.54727,
2015-01-17, 02:28:05,VALID,917.475,VALID,0,VALID,94.8277,VALID,0,VALID,18.9243,VALID,126,VALID,1.38164,
2015-01-17, 02:29:05,VALID,917.445,VALID,0,VALID,94.942,VALID,0,VALID,18.9438,VALID,123,VALID,1.14375,
2015-01-17, 02:30:05,VALID,917.459,VALID,0,VALID,94.9878,VALID,0,VALID,18.9048,VALID,120,VALID,1.35312,
2015-01-17, 02:31:05,VALID,917.467,VALID,0,VALID,95.0183,VALID,0,VALID,18.8449,VALID,117,VALID,1.19492,
2015-01-17, 02:32:05,VALID,917.45,VALID,0,VALID,95.1783,VALID,0,VALID,18.8254,VALID,124,VALID,1.55547,
2015-01-17, 02:33:05,VALID,917.474,VALID,0,VALID,95.3308,VALID,0,VALID,18.8658,VALID,122,VALID,1.31406,
2015-01-17, 02:34:05,VALID,917.461,VALID,0,VALID,95.3461,VALID,0,VALID,18.8853,VALID,124,VALID,1.84687,
2015-01-17, 02:35:05,VALID,917.443,VALID,0,VALID,95.3308,VALID,0,VALID,18.8853,VALID,125,VALID,1.60977,
2015-01-17, 02:36:05,VALID,917.452,VALID,0,VALID,95.3842,VALID,0,VALID,18.9048,VALID,140,VALID,1.43359,
2015-01-17, 02:37:05,VALID,917.446,VALID,0,VALID,95.3766,VALID,0,VALID,18.9034,VALID,118,VALID,1.18164,
2015-01-17, 02:38:05,VALID,917.473,VALID,0,VALID,95.2698,VALID,0,VALID,18.9243,VALID,129,VALID,1.16953,
2015-01-17, 02:39:05,VALID,917.441,VALID,0,VALID,95.2927,VALID,0,VALID,18.9243,VALID,140,VALID,1.32227,
2015-01-17, 02:40:05,VALID,917.46,VALID,0,VALID,95.2927,VALID,0,VALID,18.9438,VALID,141,VALID,1.70469,
2015-01-17, 02:41:05,VALID,917.41,VALID,0,VALID,95.3308,VALID,0,VALID,19.0023,VALID,130,VALID,1.32695,
2015-01-17, 02:42:05,VALID,917.43,VALID,0,VALID,95.1936,VALID,0,VALID,19.0008,VALID,129,VALID,1.68477,
2015-01-17, 02:43:05,VALID,917.392,VALID,0,VALID,95.0183,VALID,0,VALID,19.0218,VALID,123,VALID,1.02734,
2015-01-17, 02:44:05,VALID,917.369,VALID,0,VALID,94.6676,VALID,0,VALID,18.9633,VALID,129,VALID,0.831641,
2015-01-17, 02:45:05,VALID,917.37,VALID,0,VALID,94.7743,VALID,0,VALID,18.9633,VALID,117,VALID,0.714063,
2015-01-17, 02:46:05,VALID,917.36,VALID,0,VALID,94.6523,VALID,0,VALID,18.9438,VALID,117,VALID,0.113281,
2015-01-17, 02:47:05,VALID,917.351,VALID,0,VALID,94.8505,VALID,0,VALID,18.9438,VALID,122,VALID,0.173047,
2015-01-17, 02:48:05,VALID,917.325,VALID,0,VALID,94.9573,VALID,0,VALID,18.9243,VALID,123,VALID,0.372266,
2015-01-17, 02:49:05,VALID,917.314,VALID,0,VALID,94.8582,VALID,0,VALID,18.9048,VALID,125,VALID,1.09023,
2015-01-17, 02:50:05,VALID,917.303,VALID,0,VALID,95.0106,VALID,0,VALID,18.8853,VALID,126,VALID,1.7457,
2015-01-17, 02:51:05,VALID,917.342,VALID,0,VALID,95.0945,VALID,0,VALID,18.8853,VALID,122,VALID,1.50703,
2015-01-17, 02:52:05,VALID,917.335,VALID,0,VALID,95.2775,VALID,0,VALID,18.9048,VALID,124,VALID,1.54609,
2015-01-17, 07:10:04,VALID,918.48,VALID,0,VALID,82.2719,VALID,68.1177,VALID,19.7628,VALID,124,VALID,0.85625,
2015-01-17, 07:11:04,VALID,918.479,VALID,0,VALID,83.1715,VALID,69.2995,VALID,19.8603,VALID,88,VALID,1.65625,
2015-01-17, 07:12:04,VALID,918.523,VALID,0,VALID,83.0419,VALID,70.2665,VALID,19.8213,VALID,87,VALID,1.51172,
2015-01-17, 07:13:04,VALID,918.508,VALID,0,VALID,83.0724,VALID,71.7707,VALID,19.8603,VALID,113,VALID,1.26094,
2015-01-17, 07:14:04,VALID,918.498,VALID,0,VALID,82.9046,VALID,76.6055,VALID,19.8798,VALID,112,VALID,1.70273,
2015-01-17, 07:15:04,VALID,918.491,VALID,0,VALID,82.2567,VALID,79.5065,VALID,19.9188,VALID,99,VALID,1.77422,
2015-01-17, 07:16:04,VALID,918.494,VALID,0,VALID,82.5845,VALID,80.7957,VALID,19.9773,VALID,110,VALID,1.02539,
2015-01-17, 07:17:04,VALID,918.507,VALID,0,VALID,82.4549,VALID,83.9115,VALID,20.0163,VALID,130,VALID,1.33711,
2015-01-17, 07:18:04,VALID,918.52,VALID,0,VALID,82.0889,VALID,88.2092,VALID,20.0358,VALID,122,VALID,1.59961,
2015-01-17, 07:19:04,VALID,918.547,VALID,0,VALID,82.4472,VALID,91.9696,VALID,20.0944,VALID,119,VALID,1.45703,
2015-01-17, 07:20:04,VALID,918.548,VALID,0,VALID,83.0114,VALID,93.044,VALID,20.1334,VALID,89,VALID,1.17578,
2015-01-17, 07:21:04,VALID,918.548,VALID,0,VALID,83.1181,VALID,95.4077,VALID,20.1123,VALID,116,VALID,1.23672,
2015-01-17, 07:22:04,VALID,918.589,VALID,0,VALID,82.9885,VALID,99.4905,VALID,20.1724,VALID,113,VALID,0.939062,
2015-01-17, 07:23:04,VALID,918.559,VALID,0,VALID,82.4472,VALID,102.177,VALID,20.1919,VALID,131,VALID,1.38437,
2015-01-17, 07:24:04,VALID,918.578,VALID,0,VALID,82.4777,VALID,106.367,VALID,20.2309,VALID,142,VALID,1.43711,
2015-01-17, 07:25:04,VALID,918.579,VALID,0,VALID,82.4167,VALID,107.656,VALID,20.2504,VALID,116,VALID,1.33477,
2015-01-17, 07:26:04,VALID,918.577,VALID,0,VALID,82.1652,VALID,109.805,VALID,20.2894,VALID,99,VALID,1.43594,
2015-01-17, 07:27:04,VALID,918.583,VALID,0,VALID,82.1347,VALID,113.028,VALID,20.2879,VALID,123,VALID,1.4457,
2015-01-17, 07:28:04,VALID,918.609,VALID,0,VALID,81.7688,VALID,115.929,VALID,20.3269,VALID,134,VALID,0.809375,
2015-01-17, 07:29:04,VALID,918.617,VALID,0,VALID,81.7916,VALID,118.83,VALID,20.4033,VALID,95,VALID,1.14609,
2015-01-17, 07:30:04,VALID,918.628,VALID,0,VALID,80.2669,VALID,121.409,VALID,20.4439,VALID,109,VALID,1.61914,
2015-01-17, 07:31:04,VALID,918.632,VALID,0,VALID,80.3661,VALID,123.772,VALID,20.5024,VALID,119,VALID,1.55195,
2015-01-17, 07:32:04,VALID,918.648,VALID,0,VALID,79.497,VALID,125.814,VALID,20.5414,VALID,134,VALID,2.20586,
2015-01-17, 07:33:04,VALID,918.602,VALID,0,VALID,79.8629,VALID,129.144,VALID,20.5999,VALID,144,VALID,0.837109,
2015-01-17, 07:34:04,VALID,918.614,VALID,0,VALID,80.488,VALID,132.582,VALID,20.717,VALID,102,VALID,0.00195313,
2015-01-17, 07:35:04,VALID,918.595,VALID,0,VALID,79.901,VALID,134.409,VALID,20.795,VALID,102,VALID,0,
2015-01-17, 07:36:04,VALID,918.641,VALID,0,VALID,79.3064,VALID,138.707,VALID,20.8925,VALID,71,VALID,0.0417969,
2015-01-17, 07:37:04,VALID,918.651,VALID,0,VALID,78.5212,VALID,142.467,VALID,20.8535,VALID,114,VALID,0.673437,
2015-01-17, 07:38:04,VALID,918.667,VALID,0,VALID,77.9037,VALID,145.368,VALID,20.7739,VALID,134,VALID,1.8125,
2015-01-17, 07:39:04,VALID,918.696,VALID,0,VALID,78.9557,VALID,147.087,VALID,20.7739,VALID,73,VALID,0.0632813,
2015-01-17, 07:40:04,VALID,918.693,VALID,0,VALID,79.0853,VALID,148.484,VALID,20.8519,VALID,84,VALID,0,
2015-01-17, 07:41:04,VALID,918.732,VALID,0,VALID,78.1476,VALID,152.996,VALID,20.912,VALID,127,VALID,0.529688,
2015-01-17, 07:42:04,VALID,918.724,VALID,0,VALID,78.384,VALID,150.203,VALID,20.9316,VALID,156,VALID,0.0183594,
2015-01-17, 07:43:04,VALID,918.758,VALID,0,VALID,78.4754,VALID,153.211,VALID,20.9495,VALID,118,VALID,0,
2015-01-17, 07:44:04,VALID,918.797,VALID,0,VALID,78.8642,VALID,156.112,VALID,20.9885,VALID,121,VALID,0,
2015-01-17, 07:45:04,VALID,918.805,VALID,0,VALID,77.4615,VALID,109.16,VALID,21.1461,VALID,168,VALID,0,
2015-01-17, 07:46:04,VALID,918.825,VALID,0,VALID,77.7588,VALID,163.633,VALID,21.2616,VALID,159,VALID,0,
2015-01-17, 07:47:04,VALID,918.862,VALID,0,VALID,77.6597,VALID,165.244,VALID,21.3786,VALID,159,VALID,0,
2015-01-17, 07:48:04,VALID,918.872,VALID,0,VALID,75.8377,VALID,173.088,VALID,21.5347,VALID,179,VALID,0,
2015-01-17, 07:49:04,VALID,918.883,VALID,0,VALID,74.7552,VALID,177.17,VALID,21.6128,VALID,182,VALID,0,
2015-01-17, 07:50:04,VALID,918.901,VALID,0,VALID,75.0983,VALID,176.633,VALID,21.5152,VALID,138,VALID,0.302734,
2015-01-17, 07:51:04,VALID,918.895,VALID,0,VALID,75.7158,VALID,176.096,VALID,21.4973,VALID,140,VALID,0.794922,
2015-01-17, 07:52:04,VALID,918.881,VALID,0,VALID,76.9355,VALID,184.262,VALID,21.3981,VALID,130,VALID,1.41172,
2015-01-17, 07:53:04,VALID,918.841,VALID,0,VALID,76.5772,VALID,190.171,VALID,21.3201,VALID,113,VALID,1.71914,
2015-01-17, 07:54:04,VALID,918.856,VALID,0,VALID,77.0804,VALID,190.493,VALID,21.3412,VALID,157,VALID,1.54336,
2015-01-17, 07:55:04,VALID,918.841,VALID,0,VALID,76.3256,VALID,191.568,VALID,21.26,VALID,126,VALID,1.66914,
2015-01-17, 07:56:04,VALID,918.87,VALID,0,VALID,78.6279,VALID,198.229,VALID,21.2421,VALID,115,VALID,0.975391,
2015-01-17, 07:57:04,VALID,918.887,VALID,0,VALID,75.7005,VALID,204.568,VALID,21.2421,VALID,140,VALID,2.02539,
2015-01-17, 07:58:04,VALID,918.884,VALID,0,VALID,76.3561,VALID,208.866,VALID,21.3217,VALID,171,VALID,0.971484,
2015-01-17, 07:59:04,VALID,918.908,VALID,0,VALID,75.548,VALID,212.304,VALID,21.3201,VALID,140,VALID,1.69805,
2015-01-17, 08:00:04,VALID,918.919,VALID,0,VALID,76.7983,VALID,210.477,VALID,21.3786,VALID,93,VALID,1.57852,
2015-01-17, 08:01:04,VALID,918.927,VALID,0,VALID,77.3929,VALID,217.246,VALID,21.4762,VALID,87,VALID,0.347266,